Overview Statistics Trail Chart Weather Telemetry Raw packets
 

This is the latest recevied weather packets stored in our database for station/object K7DC. If no packets are shown the sender has not sent any weather packets the latest 10 day(s).

<< 74 75 76 77 78 79 80 >>
Time Temp. Humidity Pressure Rain* Wind** Luminosity Snow
1788103413 28.33° C 51% 1017.9 hPa 0 mm - 115 W/m² -
1788103113 27.78° C 52% 1017.9 hPa 0 mm - 261 W/m² -
1788102812 27.78° C 53% 1017.8 hPa 0 mm - 192 W/m² -
1788102507 27.78° C 53% 1017.7 hPa 0 mm - 132 W/m² -
1788102207 27.78° C 53% 1017.9 hPa 0 mm - 178 W/m² -
1788101907 27.22° C 55% 1017.8 hPa 0 mm - 175 W/m² -
1788101602 27.22° C 58% 1017.9 hPa 0 mm - 169 W/m² -
1788101297 26.67° C 58% 1018 hPa 0 mm - 202 W/m² -
1788100993 26.67° C 58% 1017.8 hPa 0 mm - 200 W/m² -
1788100689 26.11° C 59% 1017.9 hPa 0 mm - 196 W/m² -
1788100389 25.56° C 61% 1017.8 hPa 0 mm - 121 W/m² -
1788100083 25.56° C 62% 1017.8 hPa 0 mm - 78 W/m² -
1788099778 25.56° C 62% 1017.9 hPa 0 mm - 62 W/m² -
1788099475 25.56° C 62% 1018 hPa 0 mm - 55 W/m² -
1788099169 25° C 62% 1017.9 hPa 0 mm - 47 W/m² -
1788098869 25° C 62% 1017.9 hPa 0 mm - 40 W/m² -
1788098563 25° C 62% 1017.7 hPa 0 mm - 36 W/m² -
1788098258 25.56° C 62% 1017.8 hPa 0 mm - 35 W/m² -
1788097954 25.56° C 61% 1017.7 hPa 0 mm - 33 W/m² -
1788097649 26.11° C 59% 1017.8 hPa 0 mm - 27 W/m² -
1788097344 26.11° C 57% 1017.8 hPa 0 mm - 22 W/m² -
1788097040 26.11° C 56% 1017.7 hPa 0 mm - 18 W/m² -
1788096736 26.11° C 55% 1017.7 hPa 0 mm - 15 W/m² -
1788096431 26.11° C 56% 1017.3 hPa 0 mm - 12 W/m² -
1788096127 26.11° C 56% 1017.4 hPa 0 mm - 10 W/m² -

* Rain latest hour (hover to see other rain measurements)
** Current wind speed in m/s (hover to see current wind gust speed)